Location: Unspecified
(49.2170°N, 0.0000°E)
Time: 13:52:57
(UTC+00:00)

Transit 4A - Pass Details

Date: 16 June 2019
Orbit: 862 x 982 km, 66.8° (Epoch: 22 July)

Event Time Altitude Azimuth Distance (km) Brightness Sun altitude
Rises 15:15:37 0° 317° (NW) 3,694 11.3 44.1°
Reaches altitude 10° 15:18:59 10° 334° (NNW) 2,747 10.6 43.6°
Maximum altitude 15:23:38 20° 20° (NNE) 2,087 9.7 42.8°
Drops below altitude 10° 15:28:15 10° 67° (ENE) 2,725 10.0 42.1°
Sets 15:31:33 0° 84° (E) 3,656 10.6 41.6°
